Year,Month,Day,Hour,Minute,Value (Times are PST for temperature in C)
2005,06,08,00,00,12.20
2005,06,08,00,01,12.20
2005,06,08,00,02,12.20
2005,06,08,00,03,12.20
2005,06,08,00,04,12.20
2005,06,08,00,05,12.20
2005,06,08,00,06,12.20
2005,06,08,00,07,12.20
2005,06,08,00,08,12.20
2005,06,08,00,09,12.20
2005,06,08,00,10,12.20
2005,06,08,00,11,12.20
2005,06,08,00,12,12.20
2005,06,08,00,13,12.20
2005,06,08,00,14,12.20
2005,06,08,00,15,12.20
2005,06,08,00,16,12.20
2005,06,08,00,17,12.20
2005,06,08,00,18,12.30
2005,06,08,00,19,12.30
2005,06,08,00,20,12.30
2005,06,08,00,21,12.30
2005,06,08,00,22,12.30
2005,06,08,00,23,12.30
2005,06,08,00,24,12.30
2005,06,08,00,25,12.20
2005,06,08,00,26,12.20
2005,06,08,00,27,12.30
2005,06,08,00,28,12.30
2005,06,08,00,29,12.30
2005,06,08,00,30,12.30
2005,06,08,00,31,12.30
2005,06,08,00,32,12.30
2005,06,08,00,33,12.30
2005,06,08,00,34,12.30
2005,06,08,00,35,12.30
2005,06,08,00,36,12.30
2005,06,08,00,37,12.30
2005,06,08,00,38,12.30
2005,06,08,00,39,12.30
2005,06,08,00,40,12.30
2005,06,08,00,41,12.30
2005,06,08,00,42,12.30
2005,06,08,00,43,12.30
2005,06,08,00,44,12.20
2005,06,08,00,45,12.20
2005,06,08,00,46,12.20
2005,06,08,00,47,12.20
2005,06,08,00,48,12.20
2005,06,08,00,49,12.20
2005,06,08,00,50,12.20
2005,06,08,00,51,12.20
2005,06,08,00,52,12.20
2005,06,08,00,53,12.20
2005,06,08,00,54,12.20
2005,06,08,00,55,12.20
2005,06,08,00,56,12.20
2005,06,08,00,57,12.20
2005,06,08,00,58,12.20
2005,06,08,00,59,12.10
2005,06,08,01,00,12.10
2005,06,08,01,01,12.10
2005,06,08,01,02,12.10
2005,06,08,01,03,12.10
2005,06,08,01,04,12.10
2005,06,08,01,05,12.10
2005,06,08,01,06,12.10
2005,06,08,01,07,12.10
2005,06,08,01,08,12.10
2005,06,08,01,09,12.10
2005,06,08,01,10,12.10
2005,06,08,01,11,12.10
2005,06,08,01,12,12.10
2005,06,08,01,13,12.20
2005,06,08,01,14,12.20
2005,06,08,01,15,12.20
2005,06,08,01,16,12.20
2005,06,08,01,17,12.20
2005,06,08,01,18,12.20
2005,06,08,01,19,12.20
2005,06,08,01,20,12.20
2005,06,08,01,21,12.20
2005,06,08,01,22,12.20
2005,06,08,01,23,12.20
2005,06,08,01,24,12.20
2005,06,08,01,25,12.20
2005,06,08,01,26,12.20
2005,06,08,01,27,12.20
2005,06,08,01,28,12.20
2005,06,08,01,29,12.20
2005,06,08,01,30,12.20
2005,06,08,01,31,12.20
2005,06,08,01,32,12.20
2005,06,08,01,33,12.20
2005,06,08,01,34,12.10
2005,06,08,01,35,12.10
2005,06,08,01,36,12.10
2005,06,08,01,37,12.10
2005,06,08,01,38,12.10
2005,06,08,01,39,12.10
2005,06,08,01,40,12.00
2005,06,08,01,41,12.00
2005,06,08,01,42,12.00
2005,06,08,01,43,12.00
2005,06,08,01,44,12.00
2005,06,08,01,45,11.90
2005,06,08,01,46,11.90
2005,06,08,01,47,11.90
2005,06,08,01,48,11.90
2005,06,08,01,49,11.90
2005,06,08,01,50,11.90
2005,06,08,01,51,11.90
2005,06,08,01,52,11.90
2005,06,08,01,53,11.90
2005,06,08,01,54,11.90
2005,06,08,01,55,11.90
2005,06,08,01,56,11.90
2005,06,08,01,57,11.90
2005,06,08,01,58,11.90
2005,06,08,01,59,11.90
2005,06,08,02,00,11.90
2005,06,08,02,01,11.80
2005,06,08,02,02,11.80
2005,06,08,02,03,11.80
2005,06,08,02,04,11.80
2005,06,08,02,05,11.80
2005,06,08,02,06,11.80
2005,06,08,02,07,11.80
2005,06,08,02,08,11.80
2005,06,08,02,09,11.80
2005,06,08,02,10,11.80
2005,06,08,02,11,11.80
2005,06,08,02,12,11.70
2005,06,08,02,13,11.70
2005,06,08,02,14,11.70
2005,06,08,02,15,11.70
2005,06,08,02,16,11.70
2005,06,08,02,17,11.70
2005,06,08,02,18,11.70
2005,06,08,02,19,11.60
2005,06,08,02,20,11.60
2005,06,08,02,21,11.60
2005,06,08,02,22,11.60
2005,06,08,02,23,11.60
2005,06,08,02,24,11.60
2005,06,08,02,25,11.60
2005,06,08,02,26,11.60
2005,06,08,02,27,11.60
2005,06,08,02,28,11.60
2005,06,08,02,29,11.60
2005,06,08,02,30,11.60
2005,06,08,02,31,11.60
2005,06,08,02,32,11.60
2005,06,08,02,33,11.60
2005,06,08,02,34,11.60
2005,06,08,02,35,11.60
2005,06,08,02,36,11.60
2005,06,08,02,37,11.60
2005,06,08,02,38,11.60
2005,06,08,02,39,11.60
2005,06,08,02,40,11.60
2005,06,08,02,41,11.60
2005,06,08,02,42,11.60
2005,06,08,02,43,11.60
2005,06,08,02,44,11.50
2005,06,08,02,45,11.40
2005,06,08,02,46,11.40
2005,06,08,02,47,11.40
2005,06,08,02,48,11.40
2005,06,08,02,49,11.40
2005,06,08,02,50,11.40
2005,06,08,02,51,11.40
2005,06,08,02,52,11.40
2005,06,08,02,53,11.40
2005,06,08,02,54,11.40
2005,06,08,02,55,11.40
2005,06,08,02,56,11.40
2005,06,08,02,57,11.40
2005,06,08,02,58,11.40
2005,06,08,02,59,11.40
2005,06,08,03,00,11.40
2005,06,08,03,01,11.40
2005,06,08,03,02,11.40
2005,06,08,03,03,11.40
2005,06,08,03,04,11.40
2005,06,08,03,05,11.40
2005,06,08,03,06,11.40
2005,06,08,03,07,11.40
2005,06,08,03,08,11.40
2005,06,08,03,09,11.40
2005,06,08,03,10,11.40
2005,06,08,03,11,11.40
2005,06,08,03,12,11.40
2005,06,08,03,13,11.40
2005,06,08,03,14,11.40
2005,06,08,03,15,11.40
2005,06,08,03,16,11.30
2005,06,08,03,17,11.30
2005,06,08,03,18,11.30
2005,06,08,03,19,11.30
2005,06,08,03,20,11.30
2005,06,08,03,21,11.30
2005,06,08,03,22,11.30
2005,06,08,03,23,11.30
2005,06,08,03,24,11.30
2005,06,08,03,25,11.30
2005,06,08,03,26,11.30
2005,06,08,03,27,11.20
2005,06,08,03,28,11.20
2005,06,08,03,29,11.20
2005,06,08,03,30,11.20
2005,06,08,03,31,11.20
2005,06,08,03,32,11.20
2005,06,08,03,33,11.20
2005,06,08,03,34,11.20
2005,06,08,03,35,11.10
2005,06,08,03,36,11.10
2005,06,08,03,37,11.10
2005,06,08,03,38,11.10
2005,06,08,03,39,11.10
2005,06,08,03,40,11.10
2005,06,08,03,41,11.10
2005,06,08,03,42,11.10
2005,06,08,03,43,11.10
2005,06,08,03,44,11.10
2005,06,08,03,45,11.10
2005,06,08,03,46,11.10
2005,06,08,03,47,11.10
2005,06,08,03,48,11.10
2005,06,08,03,49,11.10
2005,06,08,03,50,11.10
2005,06,08,03,51,11.10
2005,06,08,03,52,11.10
2005,06,08,03,53,11.10
2005,06,08,03,54,11.10
2005,06,08,03,55,11.10
2005,06,08,03,56,11.10
2005,06,08,03,57,11.10
2005,06,08,03,58,11.10
2005,06,08,03,59,11.10
2005,06,08,04,00,11.10
2005,06,08,04,01,11.10
2005,06,08,04,02,11.10
2005,06,08,04,03,11.10
2005,06,08,04,04,11.10
2005,06,08,04,05,11.10
2005,06,08,04,06,11.10
2005,06,08,04,07,11.10
2005,06,08,04,08,11.10
2005,06,08,04,09,11.10
2005,06,08,04,10,11.10
2005,06,08,04,11,11.10
2005,06,08,04,12,11.10
2005,06,08,04,13,11.10
2005,06,08,04,14,11.10
2005,06,08,04,15,11.10
2005,06,08,04,16,11.10
2005,06,08,04,17,11.10
2005,06,08,04,18,11.10
2005,06,08,04,19,11.10
2005,06,08,04,20,11.00
2005,06,08,04,21,10.90
2005,06,08,04,22,10.90
2005,06,08,04,23,10.90
2005,06,08,04,24,10.90
2005,06,08,04,25,10.90
2005,06,08,04,26,10.90
2005,06,08,04,27,10.90
2005,06,08,04,28,10.90
2005,06,08,04,29,10.90
2005,06,08,04,30,10.90
2005,06,08,04,31,10.90
2005,06,08,04,32,10.90
2005,06,08,04,33,10.90
2005,06,08,04,34,10.90
2005,06,08,04,35,10.90
2005,06,08,04,36,10.90
2005,06,08,04,37,10.90
2005,06,08,04,38,10.90
2005,06,08,04,39,10.90
2005,06,08,04,40,10.90
2005,06,08,04,41,10.90
2005,06,08,04,42,10.90
2005,06,08,04,43,10.90
2005,06,08,04,44,10.90
2005,06,08,04,45,10.90
2005,06,08,04,46,10.90
2005,06,08,04,47,10.90
2005,06,08,04,48,10.90
2005,06,08,04,49,10.90
2005,06,08,04,50,10.90
2005,06,08,04,51,10.90
2005,06,08,04,52,10.90
2005,06,08,04,53,10.90
2005,06,08,04,54,10.90
2005,06,08,04,55,10.90
2005,06,08,04,56,10.90
2005,06,08,04,57,10.90
2005,06,08,04,58,10.90
2005,06,08,04,59,10.90
2005,06,08,05,00,10.90
2005,06,08,05,01,10.90
2005,06,08,05,02,10.90
2005,06,08,05,03,10.90
2005,06,08,05,04,10.90
2005,06,08,05,05,10.90
2005,06,08,05,06,10.90
2005,06,08,05,07,10.90
2005,06,08,05,08,10.90
2005,06,08,05,09,10.90
2005,06,08,05,10,10.90
2005,06,08,05,11,10.90
2005,06,08,05,12,10.90
2005,06,08,05,13,10.90
2005,06,08,05,14,10.90
2005,06,08,05,15,10.90
2005,06,08,05,16,10.90
2005,06,08,05,17,10.90
2005,06,08,05,18,10.90
2005,06,08,05,19,10.90
2005,06,08,05,20,10.90
2005,06,08,05,21,10.90
2005,06,08,05,22,10.90
2005,06,08,05,23,10.90
2005,06,08,05,24,10.90
2005,06,08,05,25,10.80
2005,06,08,05,26,10.80
2005,06,08,05,27,10.80
2005,06,08,05,28,10.80
2005,06,08,05,29,10.80
2005,06,08,05,30,10.80
2005,06,08,05,31,10.80
2005,06,08,05,32,10.80
2005,06,08,05,33,10.80
2005,06,08,05,34,10.80
2005,06,08,05,35,10.80
2005,06,08,05,36,10.80
2005,06,08,05,37,10.80
2005,06,08,05,38,10.80
2005,06,08,05,39,10.80
2005,06,08,05,40,10.80
2005,06,08,05,41,10.80
2005,06,08,05,42,10.90
2005,06,08,05,43,10.90
2005,06,08,05,44,10.90
2005,06,08,05,45,10.90
2005,06,08,05,46,10.90
2005,06,08,05,47,10.80
2005,06,08,05,48,10.80
2005,06,08,05,49,10.80
2005,06,08,05,50,10.80
2005,06,08,05,51,10.80
2005,06,08,05,52,10.80
2005,06,08,05,53,10.80
2005,06,08,05,54,10.90
2005,06,08,05,55,10.90
2005,06,08,05,56,10.90
2005,06,08,05,57,10.90
2005,06,08,05,58,10.90
2005,06,08,05,59,10.90
2005,06,08,06,00,10.90
2005,06,08,06,01,10.90
2005,06,08,06,02,10.90
2005,06,08,06,03,10.90
2005,06,08,06,04,10.90
2005,06,08,06,05,10.90
2005,06,08,06,06,10.90
2005,06,08,06,07,10.90
2005,06,08,06,08,10.90
2005,06,08,06,09,10.90
2005,06,08,06,10,10.90
2005,06,08,06,11,10.90
2005,06,08,06,12,10.90
2005,06,08,06,13,10.90
2005,06,08,06,14,10.90
2005,06,08,06,15,10.90
2005,06,08,06,16,10.90
2005,06,08,06,17,10.90
2005,06,08,06,18,10.90
2005,06,08,06,19,10.90
2005,06,08,06,20,10.90
2005,06,08,06,21,10.90
2005,06,08,06,22,10.90
2005,06,08,06,23,10.90
2005,06,08,06,24,10.90
2005,06,08,06,25,10.90
2005,06,08,06,26,10.90
2005,06,08,06,27,10.90
2005,06,08,06,28,10.90
2005,06,08,06,29,10.90
2005,06,08,06,30,10.90
2005,06,08,06,31,10.90
2005,06,08,06,32,10.90
2005,06,08,06,33,10.90
2005,06,08,06,34,10.90
2005,06,08,06,35,10.90
2005,06,08,06,36,10.90
2005,06,08,06,37,10.90
2005,06,08,06,38,10.90
2005,06,08,06,39,10.90
2005,06,08,06,40,10.90
2005,06,08,06,41,10.90
2005,06,08,06,42,10.90
2005,06,08,06,43,10.90
2005,06,08,06,44,10.90
2005,06,08,06,45,10.90
2005,06,08,06,46,10.90
2005,06,08,06,47,10.90
2005,06,08,06,48,10.90
2005,06,08,06,49,10.90
2005,06,08,06,50,10.90
2005,06,08,06,51,10.90
2005,06,08,06,52,10.90
2005,06,08,06,53,10.90
2005,06,08,06,54,10.90
2005,06,08,06,55,10.90
2005,06,08,06,56,10.90
2005,06,08,06,57,10.90
2005,06,08,06,58,10.90
2005,06,08,06,59,10.90
2005,06,08,07,00,10.90
2005,06,08,07,01,10.90
2005,06,08,07,02,10.90
2005,06,08,07,03,10.90
2005,06,08,07,04,10.90
2005,06,08,07,05,10.90
2005,06,08,07,06,10.90
2005,06,08,07,07,10.90
2005,06,08,07,08,10.90
2005,06,08,07,09,10.90
2005,06,08,07,10,10.90
2005,06,08,07,11,10.90
2005,06,08,07,12,10.90
2005,06,08,07,13,10.90
2005,06,08,07,14,10.90
2005,06,08,07,15,10.90
2005,06,08,07,16,10.90
2005,06,08,07,17,10.90
2005,06,08,07,18,10.90
2005,06,08,07,19,10.90
2005,06,08,07,20,10.90
2005,06,08,07,21,10.90
2005,06,08,07,22,10.90
2005,06,08,07,23,11.00
2005,06,08,07,24,11.10
2005,06,08,07,25,11.10
2005,06,08,07,26,11.10
2005,06,08,07,27,11.10
2005,06,08,07,28,11.10
2005,06,08,07,29,11.10
2005,06,08,07,30,11.10
2005,06,08,07,31,11.10
2005,06,08,07,32,11.10
2005,06,08,07,33,11.10
2005,06,08,07,34,11.10
2005,06,08,07,35,11.10
2005,06,08,07,36,11.10
2005,06,08,07,37,11.10
2005,06,08,07,38,11.10
2005,06,08,07,39,11.10
2005,06,08,07,40,11.10
2005,06,08,07,41,11.10
2005,06,08,07,42,11.10
2005,06,08,07,43,11.10
2005,06,08,07,44,11.10
2005,06,08,07,45,11.10
2005,06,08,07,46,11.10
2005,06,08,07,47,11.10
2005,06,08,07,48,11.10
2005,06,08,07,49,11.10
2005,06,08,07,50,11.10
2005,06,08,07,51,11.10
2005,06,08,07,52,11.10
2005,06,08,07,53,11.10
2005,06,08,07,54,11.10
2005,06,08,07,55,11.10
2005,06,08,07,56,11.10
2005,06,08,07,57,11.20
2005,06,08,07,58,11.20
2005,06,08,07,59,11.20
2005,06,08,08,00,11.20
2005,06,08,08,01,11.20
2005,06,08,08,02,11.20
2005,06,08,08,03,11.20
2005,06,08,08,04,11.20
2005,06,08,08,05,11.20
2005,06,08,08,06,11.20
2005,06,08,08,07,11.20
2005,06,08,08,08,11.20
2005,06,08,08,09,11.30
2005,06,08,08,10,11.30
2005,06,08,08,11,11.30
2005,06,08,08,12,11.30
2005,06,08,08,13,11.30
2005,06,08,08,14,11.30
2005,06,08,08,15,11.30
2005,06,08,08,16,11.30
2005,06,08,08,17,11.30
2005,06,08,08,18,11.30
2005,06,08,08,19,11.30
2005,06,08,08,20,11.30
2005,06,08,08,21,11.30
2005,06,08,08,22,11.30
2005,06,08,08,23,11.30
2005,06,08,08,24,11.30
2005,06,08,08,25,11.30
2005,06,08,08,26,11.30
2005,06,08,08,27,11.30
2005,06,08,08,28,11.40
2005,06,08,08,29,11.40
2005,06,08,08,30,11.40
2005,06,08,08,31,11.40
2005,06,08,08,32,11.40
2005,06,08,08,33,11.40
2005,06,08,08,34,11.40
2005,06,08,08,35,11.40
2005,06,08,08,36,11.40
2005,06,08,08,37,11.40
2005,06,08,08,38,11.40
2005,06,08,08,39,11.40
2005,06,08,08,40,11.40
2005,06,08,08,43,11.40
2005,06,08,08,44,11.40
2005,06,08,08,45,11.40
2005,06,08,08,46,11.50
2005,06,08,08,47,11.60
2005,06,08,08,48,11.60
2005,06,08,08,49,11.60
2005,06,08,16,00,12.40
2005,06,08,16,01,12.40
2005,06,08,16,02,12.40
2005,06,08,16,03,12.40
2005,06,08,16,04,12.40
2005,06,08,16,05,12.40
2005,06,08,16,06,12.40
2005,06,08,16,07,12.40
2005,06,08,16,08,12.40
2005,06,08,16,09,12.40
2005,06,08,16,10,12.40
2005,06,08,16,11,12.40
2005,06,08,16,12,12.40
2005,06,08,16,13,12.40
2005,06,08,16,14,12.40
2005,06,08,16,15,12.40
2005,06,08,16,16,12.40
2005,06,08,16,17,12.40
2005,06,08,16,18,12.40
2005,06,08,16,19,12.40
2005,06,08,16,20,12.40
2005,06,08,16,21,12.40
2005,06,08,16,22,12.40
2005,06,08,16,23,12.40
2005,06,08,16,24,12.40
2005,06,08,16,25,12.40
2005,06,08,16,26,12.40
2005,06,08,16,27,12.40
2005,06,08,16,28,12.40
2005,06,08,16,29,12.40
2005,06,08,16,30,12.40
2005,06,08,16,31,12.40
2005,06,08,16,32,12.40
2005,06,08,16,33,12.40
2005,06,08,16,34,12.40
2005,06,08,16,35,12.40
2005,06,08,16,36,12.40
2005,06,08,16,37,12.40
2005,06,08,16,38,12.40
2005,06,08,16,39,12.30
2005,06,08,16,40,12.30
2005,06,08,16,41,12.30
2005,06,08,16,42,12.30
2005,06,08,16,43,12.30
2005,06,08,16,44,12.30
2005,06,08,16,45,12.30
2005,06,08,16,46,12.30
2005,06,08,16,47,12.20
2005,06,08,16,48,12.20
2005,06,08,16,49,12.20
2005,06,08,16,50,12.20
2005,06,08,16,51,12.20
2005,06,08,16,52,12.30
2005,06,08,16,53,12.30
2005,06,08,16,54,12.30
2005,06,08,16,55,12.30
2005,06,08,16,56,12.30
2005,06,08,16,57,12.30
2005,06,08,16,58,12.30
2005,06,08,16,59,12.30
2005,06,08,17,00,12.30
2005,06,08,17,01,12.30
2005,06,08,17,02,12.30
2005,06,08,17,03,12.30
2005,06,08,17,04,12.30
2005,06,08,17,05,12.30
2005,06,08,17,06,12.30
2005,06,08,17,07,12.30
2005,06,08,17,08,12.30
2005,06,08,17,09,12.30
2005,06,08,17,10,12.30
2005,06,08,17,11,12.30
2005,06,08,17,12,12.30
2005,06,08,17,13,12.40
2005,06,08,17,14,12.40
2005,06,08,17,15,12.40
2005,06,08,17,16,12.40
2005,06,08,17,17,12.30
2005,06,08,17,18,12.30
2005,06,08,17,19,12.30
2005,06,08,17,20,12.20
2005,06,08,17,21,12.10
2005,06,08,17,22,12.10
2005,06,08,17,23,12.00
2005,06,08,17,24,12.00
2005,06,08,17,25,12.00
2005,06,08,17,26,11.90
2005,06,08,17,27,11.90
2005,06,08,17,28,12.00
2005,06,08,17,29,12.00
2005,06,08,17,30,12.00
2005,06,08,17,31,12.00
2005,06,08,17,32,12.00
2005,06,08,17,33,12.00
2005,06,08,17,34,12.10
2005,06,08,17,35,12.10
2005,06,08,17,36,12.10
2005,06,08,17,37,12.10
2005,06,08,17,38,12.10
2005,06,08,17,39,12.20
2005,06,08,17,40,12.20
2005,06,08,17,41,12.20
2005,06,08,17,42,12.20
2005,06,08,17,43,12.20
2005,06,08,17,44,12.20
2005,06,08,17,45,12.20
2005,06,08,17,46,12.20
2005,06,08,17,47,12.30
2005,06,08,17,48,12.30
2005,06,08,17,49,12.30
2005,06,08,17,50,12.30
2005,06,08,17,51,12.20
2005,06,08,17,52,12.10
2005,06,08,17,53,12.10
2005,06,08,17,54,12.00
2005,06,08,17,55,12.00
2005,06,08,17,56,12.00
2005,06,08,17,57,12.00
2005,06,08,17,58,12.00
2005,06,08,17,59,12.00
2005,06,08,18,00,12.00
2005,06,08,18,01,12.00
2005,06,08,18,02,12.00
2005,06,08,18,03,12.00
2005,06,08,18,04,12.00
2005,06,08,18,05,12.00
2005,06,08,18,06,11.90
2005,06,08,18,07,11.80
2005,06,08,18,08,11.80
2005,06,08,18,09,11.70
2005,06,08,18,10,11.60
2005,06,08,18,11,11.60
2005,06,08,18,12,11.60
2005,06,08,18,13,11.60
2005,06,08,18,14,11.50
2005,06,08,18,15,11.40
2005,06,08,18,16,11.40
2005,06,08,18,17,11.40
2005,06,08,18,18,11.40
2005,06,08,18,19,11.40
2005,06,08,18,20,11.40
2005,06,08,18,21,11.30
2005,06,08,18,22,11.30
2005,06,08,18,23,11.30
2005,06,08,18,24,11.30
2005,06,08,18,25,11.30
2005,06,08,18,26,11.30
2005,06,08,18,27,11.30
2005,06,08,18,28,11.30
2005,06,08,18,29,11.30
2005,06,08,18,30,11.30
2005,06,08,18,31,11.30
2005,06,08,18,32,11.30
2005,06,08,18,33,11.30
2005,06,08,18,34,11.30
2005,06,08,18,35,11.40
2005,06,08,18,36,11.40
2005,06,08,18,39,11.40
2005,06,08,18,40,11.40
2005,06,08,18,41,11.40
2005,06,08,18,42,11.40
2005,06,08,18,43,11.40
2005,06,08,18,44,11.40
2005,06,08,18,45,11.40
2005,06,08,18,46,11.40
2005,06,08,18,47,11.40
2005,06,08,18,48,11.40
2005,06,08,18,49,11.40
2005,06,08,18,50,11.40
2005,06,08,18,51,11.40
2005,06,08,18,52,11.40
2005,06,08,18,53,11.40
2005,06,08,18,54,11.40
2005,06,08,18,55,11.40
2005,06,08,18,56,11.40
2005,06,08,18,57,11.40
2005,06,08,18,58,11.40
2005,06,08,18,59,11.40
2005,06,08,19,00,11.40
2005,06,08,19,01,11.40
2005,06,08,19,02,11.40
2005,06,08,19,03,11.40
2005,06,08,19,04,11.40
2005,06,08,19,05,11.40
2005,06,08,19,06,11.40
2005,06,08,19,07,11.40
2005,06,08,19,08,11.40
2005,06,08,19,09,11.40
2005,06,08,19,10,11.40
2005,06,08,19,11,11.40
2005,06,08,19,12,11.40
2005,06,08,19,13,11.40
2005,06,08,19,14,11.40
2005,06,08,19,15,11.40
2005,06,08,19,16,11.40
2005,06,08,19,17,11.40
2005,06,08,19,18,11.40
2005,06,08,19,19,11.40
2005,06,08,19,20,11.40
2005,06,08,19,21,11.40
2005,06,08,19,22,11.40
2005,06,08,19,23,11.40
2005,06,08,19,24,11.40
2005,06,08,19,25,11.40
2005,06,08,19,26,11.60
2005,06,08,19,27,11.60
2005,06,08,19,28,11.60
2005,06,08,19,29,11.60
2005,06,08,19,30,11.60
2005,06,08,19,31,11.60
2005,06,08,19,32,11.60
2005,06,08,19,33,11.60
2005,06,08,19,34,11.60
2005,06,08,19,35,11.60
2005,06,08,19,36,11.60
2005,06,08,19,37,11.60
2005,06,08,19,38,11.60
2005,06,08,19,39,11.60
2005,06,08,19,40,11.60
2005,06,08,19,41,11.60
2005,06,08,19,42,11.60
2005,06,08,19,43,11.60
2005,06,08,19,44,11.60
2005,06,08,19,45,11.60
2005,06,08,19,46,11.70
2005,06,08,19,47,11.70
2005,06,08,19,48,11.70
2005,06,08,19,49,11.70
2005,06,08,19,50,11.70
2005,06,08,19,51,11.80
2005,06,08,19,52,11.80
2005,06,08,19,53,11.80
2005,06,08,19,54,11.80
2005,06,08,19,55,11.80
2005,06,08,19,56,11.80
2005,06,08,19,57,11.70
2005,06,08,19,58,11.70
2005,06,08,19,59,11.70
2005,06,08,20,00,11.60
2005,06,08,20,01,11.60
2005,06,08,20,02,11.60
2005,06,08,20,03,11.60
2005,06,08,20,04,11.60
2005,06,08,20,05,11.60
2005,06,08,20,06,11.60
2005,06,08,20,07,11.60
2005,06,08,20,08,11.60
2005,06,08,20,09,11.60
2005,06,08,20,10,11.60
2005,06,08,20,11,11.60
2005,06,08,20,12,11.60
2005,06,08,20,13,11.60
2005,06,08,20,14,11.60
2005,06,08,20,15,11.60
2005,06,08,20,16,11.60
2005,06,08,20,17,11.60
2005,06,08,20,18,11.60
2005,06,08,20,19,11.60
2005,06,08,20,20,11.60
2005,06,08,20,21,11.60
2005,06,08,20,22,11.60
2005,06,08,20,23,11.60
2005,06,08,20,24,11.60
2005,06,08,20,25,11.60
2005,06,08,20,26,11.60
2005,06,08,20,27,11.60
2005,06,08,20,28,11.60
2005,06,08,20,29,11.50
2005,06,08,20,30,11.40
2005,06,08,20,31,11.40
2005,06,08,20,32,11.40
2005,06,08,20,33,11.40
2005,06,08,20,34,11.40
2005,06,08,20,35,11.40
2005,06,08,20,36,11.40
2005,06,08,20,37,11.40
2005,06,08,20,38,11.40
2005,06,08,20,39,11.40
2005,06,08,20,40,11.40
2005,06,08,20,41,11.40
2005,06,08,20,42,11.50
2005,06,08,20,43,11.60
2005,06,08,20,44,11.60
2005,06,08,20,45,11.60
2005,06,08,20,46,11.60
2005,06,08,20,47,11.60
2005,06,08,20,48,11.60
2005,06,08,20,49,11.60
2005,06,08,20,50,11.60
2005,06,08,20,51,11.60
2005,06,08,20,52,11.60
2005,06,08,20,53,11.60
2005,06,08,20,54,11.60
2005,06,08,20,55,11.60
2005,06,08,20,56,11.60
2005,06,08,20,57,11.60
2005,06,08,20,58,11.60
2005,06,08,20,59,11.60
2005,06,08,21,00,11.60
2005,06,08,21,01,11.60
2005,06,08,21,02,11.60
2005,06,08,21,03,11.60
2005,06,08,21,04,11.60
2005,06,08,21,05,11.60
2005,06,08,21,06,11.60
2005,06,08,21,07,11.60
2005,06,08,21,08,11.50
2005,06,08,21,09,11.50
2005,06,08,21,10,11.40
2005,06,08,21,11,11.40
2005,06,08,21,12,11.40
2005,06,08,21,13,11.40
2005,06,08,21,14,11.40
2005,06,08,21,15,11.40
2005,06,08,21,16,11.40
2005,06,08,21,17,11.40
2005,06,08,21,18,11.40
2005,06,08,21,19,11.40
2005,06,08,21,20,11.40
2005,06,08,21,21,11.40
2005,06,08,21,22,11.50
2005,06,08,21,23,11.50
2005,06,08,21,24,11.60
2005,06,08,21,25,11.60
2005,06,08,21,26,11.60
2005,06,08,21,27,11.60
2005,06,08,21,28,11.60
2005,06,08,21,29,11.60
2005,06,08,21,30,11.60
2005,06,08,21,31,11.50
2005,06,08,21,32,11.40
2005,06,08,21,33,11.40
2005,06,08,21,34,11.40
2005,06,08,21,35,11.40
2005,06,08,21,36,11.40
2005,06,08,21,37,11.40
2005,06,08,21,38,11.40
2005,06,08,21,39,11.40
2005,06,08,21,40,11.40
2005,06,08,21,41,11.40
2005,06,08,21,42,11.40
2005,06,08,21,43,11.40
2005,06,08,21,44,11.40
2005,06,08,21,45,11.40
2005,06,08,21,46,11.40
2005,06,08,21,47,11.40
2005,06,08,21,48,11.40
2005,06,08,21,49,11.40
2005,06,08,21,50,11.40
2005,06,08,21,51,11.40
2005,06,08,21,52,11.40
2005,06,08,21,53,11.40
2005,06,08,21,54,11.40
2005,06,08,21,55,11.40
2005,06,08,21,56,11.40
2005,06,08,21,57,11.40
2005,06,08,21,58,11.40
2005,06,08,21,59,11.30
2005,06,08,22,00,11.30
2005,06,08,22,01,11.30
2005,06,08,22,02,11.30
2005,06,08,22,03,11.30
2005,06,08,22,04,11.30
2005,06,08,22,05,11.30
2005,06,08,22,06,11.30
2005,06,08,22,07,11.20
2005,06,08,22,08,11.20
2005,06,08,22,09,11.20
2005,06,08,22,10,11.20
2005,06,08,22,11,11.20
2005,06,08,22,12,11.20
2005,06,08,22,13,11.10
2005,06,08,22,14,11.10
2005,06,08,22,15,11.10
2005,06,08,22,16,11.10
2005,06,08,22,17,11.10
2005,06,08,22,18,11.10
2005,06,08,22,19,11.10
2005,06,08,22,20,11.10
2005,06,08,22,21,11.10
2005,06,08,22,22,11.10
2005,06,08,22,23,11.10
2005,06,08,22,24,11.00
2005,06,08,22,25,10.90
2005,06,08,22,26,10.90
2005,06,08,22,27,10.90
2005,06,08,22,28,10.90
2005,06,08,22,29,10.90
2005,06,08,22,30,10.90
2005,06,08,22,31,10.90
2005,06,08,22,32,10.90
2005,06,08,22,33,10.90
2005,06,08,22,34,10.90
2005,06,08,22,35,10.90
2005,06,08,22,36,10.90
2005,06,08,22,37,10.90
2005,06,08,22,38,10.90
2005,06,08,22,39,10.90
2005,06,08,22,40,10.90
2005,06,08,22,41,10.80
2005,06,08,22,42,10.80
2005,06,08,22,43,10.80
2005,06,08,22,44,10.80
2005,06,08,22,45,10.80
2005,06,08,22,46,10.80
2005,06,08,22,47,10.80
2005,06,08,22,48,10.80
2005,06,08,22,49,10.80
2005,06,08,22,50,10.80
2005,06,08,22,51,10.70
2005,06,08,22,52,10.70
2005,06,08,22,53,10.70
2005,06,08,22,54,10.70
2005,06,08,22,55,10.70
2005,06,08,22,56,10.70
2005,06,08,22,57,10.70
2005,06,08,22,58,10.70
2005,06,08,22,59,10.70
2005,06,08,23,00,10.70
2005,06,08,23,01,10.70
2005,06,08,23,02,10.70
2005,06,08,23,03,10.60
2005,06,08,23,04,10.60
2005,06,08,23,05,10.60
2005,06,08,23,06,10.60
2005,06,08,23,07,10.60
2005,06,08,23,08,10.60
2005,06,08,23,09,10.60
2005,06,08,23,10,10.60
2005,06,08,23,11,10.60
2005,06,08,23,12,10.60
2005,06,08,23,13,10.40
2005,06,08,23,14,10.40
2005,06,08,23,15,10.40
2005,06,08,23,16,10.40
2005,06,08,23,17,10.40
2005,06,08,23,18,10.40
2005,06,08,23,19,10.40
2005,06,08,23,20,10.40
2005,06,08,23,21,10.40
2005,06,08,23,22,10.40
2005,06,08,23,23,10.40
2005,06,08,23,24,10.40
2005,06,08,23,25,10.30
2005,06,08,23,26,10.30
2005,06,08,23,27,10.30
2005,06,08,23,28,10.30
2005,06,08,23,29,10.30
2005,06,08,23,30,10.30
2005,06,08,23,31,10.30
2005,06,08,23,32,10.30
2005,06,08,23,33,10.30
2005,06,08,23,34,10.30
2005,06,08,23,35,10.20
2005,06,08,23,36,10.20
2005,06,08,23,37,10.20
2005,06,08,23,38,10.20
2005,06,08,23,39,10.20
2005,06,08,23,40,10.20
2005,06,08,23,41,10.20
2005,06,08,23,42,10.20
2005,06,08,23,43,10.20
2005,06,08,23,44,10.10
2005,06,08,23,45,10.10
2005,06,08,23,46,10.10
2005,06,08,23,47,10.10
2005,06,08,23,48,10.10
2005,06,08,23,49,10.10
2005,06,08,23,50,10.10
2005,06,08,23,51,10.10
2005,06,08,23,52,10.10
2005,06,08,23,53,10.10
2005,06,08,23,54,10.10
2005,06,08,23,55,9.90
2005,06,08,23,56,9.90
2005,06,08,23,57,9.90
2005,06,08,23,58,9.90
2005,06,08,23,59,9.90
